Burgtor — V2OR7 — position and weather

sailwx.info

Track history (hours):
 
Tides and Currents Weather Stations Pressure Air Temp Water Temp Dewpoint Dewpoint Depression Visibility Wind Speed Wind Dir Waves Ship Positions

Burgtor

Last reported at 2014-Oct-25 09:26 UTC. Time now 2014-Oct-25 10:20 UTC.
Position N 43°34' W 005°42'.

Length 87 m; draft 3 m.

Type: Cargo ship. MMSI: 304665000.

Date/timePositionNaut miles runAvg speedWind from/ knotsBaromVisibWave heightAir tempDewpointWater temp
2014-Oct-25 09:26N 43°34' W 005°42'0 0.0
2014-Oct-25 08:14N 43°34' W 005°42'0 0.0
2014-Oct-25 07:32N 43°34' W 005°42'0 0.0
2014-Oct-25 06:32N 43°34' W 005°42'0 0.0
2014-Oct-25 05:32N 43°34' W 005°42'0 0.0
2014-Oct-25 04:32N 43°34' W 005°42'0 0.0
2014-Oct-25 03:26N 43°34' W 005°42'0 0.0
2014-Oct-25 02:26N 43°34' W 005°42'0 0.0
2014-Oct-25 01:20N 43°34' W 005°42'0 0.0
2014-Oct-25 00:32N 43°34' W 005°42'0 0.0
2014-Oct-24 23:20N 43°34' W 005°42'0 0.0
2014-Oct-24 17:31N 43°34' W 005°42'2 0.7
2014-Oct-24 14:10N 43°36' W 005°41'0 0.0
2014-Oct-24 13:28N 43°36' W 005°41'0 0.0
2014-Oct-24 03:16N 43°36' W 005°41'0 0.0
2014-Oct-23 23:15N 43°36' W 005°41'0 0.0
2014-Oct-23 22:03N 43°36' W 005°41'0 0.1
2014-Oct-23 21:33N 43°36' W 005°41'0 0.0
2014-Oct-23 19:33N 43°36' W 005°41'0 0.0
2014-Oct-23 18:27N 43°36' W 005°41'0 0.0
2014-Oct-23 17:33N 43°36' W 005°41'0 0.0
2014-Oct-23 13:15N 43°36' W 005°41'0 0.0
2014-Oct-23 08:21N 43°36' W 005°41'0 0.0
2014-Oct-23 07:27N 43°36' W 005°41'0 0.0
2014-Oct-23 05:21N 43°36' W 005°41'0 0.0
2014-Oct-23 04:33N 43°36' W 005°41'0 0.0
2014-Oct-23 02:21N 43°36' W 005°41'0 0.0
2014-Oct-23 00:27N 43°36' W 005°41'0 0.0
2014-Oct-22 23:09N 43°36' W 005°41'0 0.0
2014-Oct-22 22:15N 43°36' W 005°41'0 0.0
2014-Oct-22 20:33N 43°36' W 005°41'0 0.0
2014-Oct-22 17:21N 43°36' W 005°41'0 0.0
2014-Oct-22 15:21N 43°36' W 005°41'0 0.0
2014-Oct-22 09:14N 43°36' W 005°41'  
2014-Oct-19 05:17N 44°51' W 003°00'6 8.7
2014-Oct-19 04:33N 44°54' W 002°53'9 8.6
2014-Oct-19 03:33N 44°59' W 002°43'9 8.5
2014-Oct-19 02:33N 45°04' W 002°33'9 8.6
2014-Oct-19 01:33N 45°08' W 002°22'9 8.6
2014-Oct-19 00:34N 45°13' W 002°12'8 8.1
2014-Oct-18 23:33N 45°18' W 002°03'8 8.2
2014-Oct-18 22:33N 45°22' W 001°53'8 7.9
2014-Oct-18 21:33N 45°27' W 001°44'8 8.0
2014-Oct-18 20:32N 45°31' W 001°34'  
2014-Oct-16 08:29N 45°39' W 001°08'45 8.6
2014-Oct-16 03:13N 44°58' W 001°34'6 9.2
2014-Oct-16 02:31N 44°51' W 001°36'9 9.1
2014-Oct-16 01:33N 44°42' W 001°38'10 9.0
2014-Oct-16 00:24N 44°32' W 001°41'  
Track history (hours):
 
Tides and Currents Weather Stations Pressure Air Temp Water Temp Dewpoint Dewpoint Depression Visibility Wind Speed Wind Dir Waves Ship Positions

Burgtor

Last reported at 2014-Oct-25 09:26 UTC. Time now 2014-Oct-25 10:20 UTC.
Position N 43°34' W 005°42'.

Length 87 m; draft 3 m.

Type: Cargo ship. MMSI: 304665000.

Date/timePositionNaut miles runAvg speedWind from/ knotsBaromVisibWave heightAir tempDewpointWater temp
2014-Oct-25 09:26N 43°34' W 005°42'0 0.0
2014-Oct-25 08:14N 43°34' W 005°42'0 0.0
2014-Oct-25 07:32N 43°34' W 005°42'0 0.0
2014-Oct-25 06:32N 43°34' W 005°42'0 0.0
2014-Oct-25 05:32N 43°34' W 005°42'0 0.0
2014-Oct-25 04:32N 43°34' W 005°42'0 0.0
2014-Oct-25 03:26N 43°34' W 005°42'0 0.0
2014-Oct-25 02:26N 43°34' W 005°42'0 0.0
2014-Oct-25 01:20N 43°34' W 005°42'0 0.0
2014-Oct-25 00:32N 43°34' W 005°42'0 0.0
2014-Oct-24 23:20N 43°34' W 005°42'0 0.0
2014-Oct-24 17:31N 43°34' W 005°42'2 0.7
2014-Oct-24 14:10N 43°36' W 005°41'0 0.0
2014-Oct-24 13:28N 43°36' W 005°41'0 0.0
2014-Oct-24 03:16N 43°36' W 005°41'0 0.0
2014-Oct-23 23:15N 43°36' W 005°41'0 0.0
2014-Oct-23 22:03N 43°36' W 005°41'0 0.1
2014-Oct-23 21:33N 43°36' W 005°41'0 0.0
2014-Oct-23 19:33N 43°36' W 005°41'0 0.0
2014-Oct-23 18:27N 43°36' W 005°41'0 0.0
2014-Oct-23 17:33N 43°36' W 005°41'0 0.0
2014-Oct-23 13:15N 43°36' W 005°41'0 0.0
2014-Oct-23 08:21N 43°36' W 005°41'0 0.0
2014-Oct-23 07:27N 43°36' W 005°41'0 0.0
2014-Oct-23 05:21N 43°36' W 005°41'0 0.0
2014-Oct-23 04:33N 43°36' W 005°41'0 0.0
2014-Oct-23 02:21N 43°36' W 005°41'0 0.0
2014-Oct-23 00:27N 43°36' W 005°41'0 0.0
2014-Oct-22 23:09N 43°36' W 005°41'0 0.0
2014-Oct-22 22:15N 43°36' W 005°41'0 0.0
2014-Oct-22 20:33N 43°36' W 005°41'0 0.0
2014-Oct-22 17:21N 43°36' W 005°41'0 0.0
2014-Oct-22 15:21N 43°36' W 005°41'0 0.0
2014-Oct-22 09:14N 43°36' W 005°41'  
2014-Oct-19 05:17N 44°51' W 003°00'6 8.7
2014-Oct-19 04:33N 44°54' W 002°53'9 8.6
2014-Oct-19 03:33N 44°59' W 002°43'9 8.5
2014-Oct-19 02:33N 45°04' W 002°33'9 8.6
2014-Oct-19 01:33N 45°08' W 002°22'9 8.6
2014-Oct-19 00:34N 45°13' W 002°12'8 8.1
2014-Oct-18 23:33N 45°18' W 002°03'8 8.2
2014-Oct-18 22:33N 45°22' W 001°53'8 7.9
2014-Oct-18 21:33N 45°27' W 001°44'8 8.0
2014-Oct-18 20:32N 45°31' W 001°34'  
2014-Oct-16 08:29N 45°39' W 001°08'45 8.6
2014-Oct-16 03:13N 44°58' W 001°34'6 9.2
2014-Oct-16 02:31N 44°51' W 001°36'9 9.1
2014-Oct-16 01:33N 44°42' W 001°38'10 9.0
2014-Oct-16 00:24N 44°32' W 001°41'  

Dump ship's entire track history